Regional Weather Roundup
Issued by NWS Jackson, KY

Home | Current Version | Previous Version | Graphics & Text | Print | Product List | Glossary On
Versions: 1 2 3 4 5 6 7 8 9 10 11 12 13 14 15 16 17 18 19 20 21 22 23 24 25 26 27
000
ASUS43 KJKL 171610
RWRJKL

EAST KENTUCKY HOURLY WEATHER ROUNDUP
NATIONAL WEATHER SERVICE JACKSON KY
1100 AM EST TUE JAN 17 2017

NOTE: "FAIR" INDICATES FEW OR NO CLOUDS BELOW 12,000 FEET WITH
NO SIGNIFICANT WEATHER AND/OR OBSTRUCTIONS TO VISIBILITY.

* THESE REPORTS ARE NOT UNDER NWS QUALITY CONTROL AND MAY NOT
  REPORT WEATHER SUCH AS PRECIPITATION AND FOG.

KYZ079-080-083-085-087-088-110-112-115-119-120-171700
...EASTERN KENTUCKY...

CITY           SKY/WX    TMP DP  RH WIND       PRES   REMARKS
JACKSON        CLOUDY    60  55  83 VRB7G20   30.03R
LONDON         LGT RAIN  61  54  77 SW9G21    30.06R
SOMERSET*      RAIN      57  57 100 S9        30.05F
MONTICELLO*    LGT RAIN  61  59  93 VRB3      30.06S
WILLIAMSBURG*  PTSUNNY   61  59  94 SW10G17   30.07S
MIDDLESBORO*   LGT RAIN  59  56  89 SW7G16    30.11S
HARLAN APT*    CLOUDY    59  52  77 CALM      30.10S
PIKE CO APT*   CLOUDY    60  57  90 S9        30.04S
BIG SANDY APT* RAIN      62  56  82 SW9G17    30.02S
MOREHEAD APT*  CLOUDY    61  57  88 SW18G26   29.99S
ASHLAND*       CLOUDY    59  57  94 SW7       29.94S
$$

KYZ035-036-041-042-044-050-067-078-099-171700
...CENTRAL KENTUCKY...

CITY           SKY/WX    TMP DP  RH WIND       PRES   REMARKS
MT STERLING*   CLOUDY    61  59  94 SW16G22   29.99R
FLEMING/MASON* LGT RAIN  58  58 100 SW9       29.97R
DANVILLE*      LGT RAIN  61  59  94 SW14G20   30.00S
LEXINGTON      CLOUDY    63  58  83 SW18      29.97S
FRANKFORT      CLOUDY    63  57  81 SW15G22   29.95R
LOUISVILLE     PTSUNNY   63  55  75 W17       29.95R
LEBANON*       PTSUNNY   63  59  88 S15G21    29.98S
GLASGOW*       CLOUDY    63  63 100 SW10      30.01S
BOWLING GREEN  CLOUDY    64  59  83 SW14G21   30.02R
$$

KYZ091>093-OHZ055-061-077-WVZ005-015-034-035-042-171700
...SOUTHERN OHIO/WEST VIRGINIA...

CITY           SKY/WX    TMP DP  RH WIND       PRES   REMARKS
COVINGTON      PTSUNNY   63  57  81 SW15G22   29.91R
COLUMBUS       CLOUDY    62  55  77 SW14G20   29.88R
DAYTON         CLOUDY    55  51  86 W9        29.90R
WILMINGTON     MOSUNNY   61  56  83 SW20      29.88S
HUNTINGTON     LGT RAIN  59  56  89 S12       29.96F FOG
CHARLESTON     LGT RAIN  58  53  84 S14       29.98F
BECKLEY        CLOUDY    55  50  83 SW17G23   30.08F
BLUEFIELD      CLOUDY    55  48  77 SW15G22   30.11F
LOGAN CO APT*  CLOUDY    59  54  82 S8        30.03F
$$

VAZ002-007-008-TNZ017-027-036-066-071-171700
...SOUTHWEST VIRGINIA/EAST TENNESSEE...

CITY           SKY/WX    TMP DP  RH WIND       PRES   REMARKS
WISE*          LGT RAIN  55  55 100 SW20G26   30.12F
JONESVILLE*    LGT RAIN  55  55 100 CALM      30.15R
ABINGDON*      LGT RAIN  55  53  95 CALM      30.14S
BRISTOL        CLOUDY    58  52  80 NW3       30.13S
MORRISTOWN*    CLOUDY    59  55  88 W7        30.12S FOG
SEVIERVILLE*   CLOUDY    55  54  94 CALM      30.12S
KNOXVILLE      CLOUDY    65  54  67 SW15      30.12R
LAFOLLETTE*    CLOUDY    57  57 100 CALM      30.13F FOG
OAK RIDGE      LGT RAIN  58  55  90 W3        30.15S FOG
CROSSVILLE     LGT RAIN  58  56  93 S8        30.11F FOG
NASHVILLE      CLOUDY    63  60  90 SW5       30.07R
$$

...KEY TO REMARKS...
VSB - VISIBILITY IN MILES
WCI - WIND CHILL INDEX
HX  - HEAT INDEX

$$




USA.gov is the U.S. government's official web portal to all federal, state and local government web resources and services.